PAGEOS 1 DEB, 9468

Orbit data source: Space-Track

PAGEOS 1 DEB, 9468 is space debris in LEO originally from a launch on Fri, 24 Jun 1966 UTC launched from the Air Force Western Test Range (AFWTR). Debris objects in space refer to the collection of defunct objects orbiting the Earth. Examples of debris include non-operational satellites, rocket bodies, and fragments generated from explosions, collisions, or faulty payload assembly.

Loading next visibility...
Identifier
9468, 1966-056AH
Orbit
LEO
Country
Flag of USUS
Related business
Manufacturer
Unknown
Mission
Spacecraft
Bus & Motor
Unknown
Mass
Unknown
Launch date (UTC)
1966-06-24 (60 years ago)
Launch vehicle
Unknown
Launch site
Air Force Western Test Range (AFWTR)
Object type
Payload
Rocket body
Debris
Shape & HBR
Unknown shape, 0.2 m
Radar Cross Section
Medium (>0.1 m² and <1 m²)

Expand to show TLE details & history
Last TLE update: 3 days ago

TLE from 3 days ago
0 PAGEOS 1 DEB
1 09468U 66056AH  26101.99614332  .00000385  00000-0  26769+0 0  9992
2 09468  85.4873 115.7237 0713433 356.8597   2.7882  8.04515133 60467
Epoch: 2026-04-11T23:54Z
TLE epoch observation values (Epoch: 2026-04-11T23:54:26.782Z)
Latitude
-0.00003°
Longitude
-83.09534°
Altitude
3,395.043 km
Speed
6.611 km/s
True Right ascension
07h 42m 53s
True Declination
0° 00' 00"
Sunlit
Object was in daylight at epoch
Visualization orbit readout
Latitude
Unknown
Longitude
Unknown
Altitude
Unknown
Speed
Unknown
Apparent Right ascension
Unknown
Apparent Declination
Unknown
Sunlit
N/A
Visualization observer readout
Local Sidereal Time
14:20:07
Azimuth
Unknown
Elevation
Unknown
Doppler factor
Unknown
Orbital elements
Apogee altitude
4,890.962 km
Perigee altitude
3,390.089 km
Semi-major axis
10,518.662 km
Eccentricity
0.07134
Inclination
85.4873°
RAAN
115.7237°
Arg. of periapsis
356.8597°
True anomaly
3.22459°
Mean anomaly
2.7882°
Eccentric anomaly
3.0023°
Mean motion
2.01188 °/min
Orbital period
178.94 mins
BSTAR
0.26769
Loading maneuver chart data...
Computing Atmospheric mass density...

Documentation

Showing up to 5 results
|